FW5198 Weather Reports


Display with metric or nautical units.
time (UTC)temp
F
wind
direction
speed
MPH
gust
MPH
rain 1hr
in
rain 24hr
in
rain mn
in
humidity
%
barometer
mb
20200706175537 87 56 0.0 2.0 0.00 1.37 0.00 67 1003.8
20200706175025 87 112 0.0 2.0 0.00 1.37 0.00 69 1003.7
20200706174536 87 132 0.0 3.0 0.00 1.37 0.00 71 1003.8
20200706174030 86 95 0.0 4.0 0.00 1.37 0.00 70 1003.9
20200706172519 87 124 0.0 3.0 0.00 1.37 0.00 68 1004.2
20200706172022 86 65 0.0 3.0 0.00 1.37 0.00 68 1004.2
20200706171529 86 91 0.0 1.0 0.00 1.37 0.00 70 1004.3
20200706171015 85 90 0.0 1.0 0.00 1.37 0.00 73 1004.4
20200706170515 84 93 0.0 1.0 0.00 1.37 0.00 73 1004.6
20200706170018 84 86 0.0 1.0 0.00 1.37 0.00 70 1004.6
20200706165529 84 87 0.0 1.0 0.00 1.37 0.00 71 1004.6
20200706165021 84 86 0.0 3.0 0.00 1.37 0.00 70 1004.6
20200706164534 84 90 0.0 4.0 0.00 1.37 0.00 69 1004.7
20200706164013 84 58 3.0 5.0 0.00 1.37 0.00 68 1004.8
20200706162514 84 87 3.0 8.0 0.00 1.37 0.00 65 1004.7
20200706162018 84 67 4.0 8.0 0.00 1.37 0.00 66 1004.7
20200706161520 84 56 3.0 9.0 0.00 1.37 0.00 67 1004.8
20200706161011 84 65 4.0 7.0 0.00 1.37 0.00 64 1004.8
20200706160511 84 69 4.0 9.0 0.00 1.37 0.00 65 1004.9
20200706160013 83 90 2.0 9.0 0.00 1.37 0.00 67 1005.0
20200706155522 83 75 3.0 7.0 0.00 1.37 0.00 66 1005.0
20200706155009 83 69 4.0 7.0 0.00 1.37 0.00 65 1005.0
20200706154513 83 109 2.0 6.0 0.00 1.37 0.00 68 1004.9
20200706154006 82 122 2.0 6.0 0.00 1.37 0.00 70 1005.0
20200706152510 82 81 1.0 5.0 0.00 1.37 0.00 70 1005.1
20200706152009 81 93 1.0 4.0 0.00 1.37 0.00 72 1005.1
20200706151509 81 92 2.0 6.0 0.00 1.37 0.00 71 1005.1
20200706151006 81 88 2.0 6.0 0.00 1.37 0.00 70 1005.1
20200706150506 80 94 1.0 4.0 0.00 1.37 0.00 72 1005.0
20200706150010 80 96 2.0 4.0 0.00 1.37 0.00 72 1005.0
20200706145509 80 89 0.0 4.0 0.00 1.37 0.00 74 1005.0
20200706145004 79 89 0.0 6.0 0.00 1.37 0.00 75 1005.0
20200706144504 79 102 2.0 6.0 0.00 1.37 0.00 78 1005.0
20200706144059 79 141 0.0 6.0 0.00 1.37 0.00 76 1005.0
20200706143605 78 91 1.0 4.0 0.00 1.37 0.00 78 1005.1
20200706142502 78 100 2.0 4.0 0.00 1.37 0.00 79 1005.1
20200706142004 78 104 1.0 5.0 0.00 1.37 0.00 80 1005.0
20200706141505 78 44 0.0 5.0 0.00 1.37 0.00 80 1005.1
20200706140600 78 119 0.0 4.0 0.00 1.37 0.00 79 1005.0
20200706140144 77 81 2.0 7.0 0.00 1.37 0.00 79 1005.0
20200706135559 77 70 4.0 7.0 0.00 1.37 0.00 79 1005.0
20200706135120 77 92 1.0 7.0 0.00 1.37 0.00 81 1004.9
20200706134703 77 31 4.0 7.0 0.00 1.37 0.00 81 1005.0
20200706134106 76 65 3.0 5.0 0.00 1.37 0.00 82 1004.8
20200706133606 75 116 1.0 5.0 0.00 1.37 0.00 86 1004.8
20200706132604 75 116 0.0 5.0 0.00 1.37 0.00 87 1004.8
20200706132055 75 71 3.0 5.0 0.00 1.37 0.00 87 1004.7
20200706131627 74 91 1.0 3.0 0.00 1.37 0.00 89 1004.6
20200706131103 74 91 1.0 3.0 0.00 1.37 0.00 91 1004.7
20200706130549 73 125 0.0 3.0 0.00 1.37 0.00 92 1004.7
20200706130127 73 157 0.0 3.0 0.00 1.37 0.00 94 1004.6
20200706125555 73 225 0.0 1.0 0.00 1.37 0.00 97 1004.6
20200706125102 72 225 0.0 1.0 0.00 1.37 0.00 97 1004.6
20200706124635 72 225 0.0 1.0 0.00 1.37 0.00 98 1004.6
20200706124044 71 225 0.0 1.0 0.00 1.37 0.00 98 1004.7
20200706123544 70 225 0.0 0.0 0.00 1.37 0.00 98 1004.5
20200706122547 70 225 0.0 0.0 0.00 1.37 0.00 98 1004.5
20200706122104 70 225 0.0 0.0 0.00 1.37 0.00 98 1004.5
20200706121553 70 225 0.0 0.0 0.00 1.37 0.00 98 1004.6
20200706121046 70 225 0.0 1.0 0.00 1.37 0.00 98 1004.4
20200706120546 70 225 0.0 1.0 0.00 1.37 0.00 98 1004.6
20200706120104 70 225 0.0 0.0 0.00 1.37 0.00 98 1004.5
20200706115547 70 225 0.0 0.0 0.00 1.37 0.00 98 1004.4
20200706115047 70 225 0.0 1.0 0.00 1.37 0.00 98 1004.4
20200706114659 69 225 0.0 2.0 0.00 1.37 0.00 98 1004.2
20200706114044 69 225 0.0 2.0 0.00 1.37 0.00 98 1004.2
20200706113544 69 235 0.0 1.0 0.00 1.37 0.00 98 1004.2
20200706112543 69 235 0.0 1.0 0.00 1.37 0.00 98 1004.1
20200706112043 69 235 0.0 0.0 0.00 1.37 0.00 98 1004.0
20200706111631 69 235 0.0 0.0 0.00 1.37 0.00 98 1004.0
20200706111041 69 235 0.0 1.0 0.00 1.37 0.00 98 1003.9
20200706110600 69 235 0.0 1.0 0.00 1.37 0.00 98 1003.8
20200706110129 69 235 0.0 0.0 0.00 1.37 0.00 98 1003.9
20200706105558 69 235 0.0 1.0 0.00 1.37 0.00 98 1003.8
20200706105040 69 235 0.0 1.0 0.00 1.37 0.00 98 1003.8
20200706104609 69 235 0.0 0.0 0.00 1.37 0.00 98 1003.7
20200706104039 68 235 0.0 0.0 0.00 1.37 0.00 98 1003.6
20200706103611 68 233 0.0 1.0 0.00 1.37 0.00 98 1003.4
20200706102615 68 233 0.0 1.0 0.00 1.37 0.00 98 1003.4
20200706102053 68 238 0.0 0.0 0.00 1.37 0.00 98 1003.2
20200706101556 68 238 0.0 0.0 0.00 1.37 0.00 98 1003.0
20200706101105 69 238 0.0 0.0 0.00 1.37 0.00 98 1003.0
20200706100541 69 238 0.0 0.0 0.00 1.37 0.00 98 1002.9
20200706100109 69 238 0.0 0.0 0.00 1.37 0.00 98 1003.0
20200706095541 69 238 0.0 0.0 0.00 1.37 0.00 98 1002.9
20200706095041 68 236 0.0 0.0 0.00 1.37 0.00 98 1002.9
20200706094559 68 236 0.0 1.0 0.00 1.37 0.00 98 1002.9
20200706094050 68 236 0.0 2.0 0.00 1.37 0.00 98 1003.0
20200706093545 68 249 0.0 0.0 0.00 1.37 0.00 98 1002.9
20200706092558 68 249 0.0 0.0 0.00 1.37 0.00 98 1003.0
20200706092041 68 249 0.0 1.0 0.00 1.37 0.00 98 1002.8
20200706091709 68 249 0.0 2.0 0.00 1.37 0.00 98 1002.8
20200706091041 68 239 0.0 1.0 0.00 1.37 0.00 98 1002.7
20200706090540 68 235 0.0 0.0 0.00 1.37 0.00 98 1002.7
20200706085539 68 235 0.0 0.0 0.00 1.37 0.00 98 1002.5
20200706085112 68 235 0.0 0.0 0.00 1.37 0.00 98 1002.4
20200706084640 68 235 0.0 0.0 0.00 1.37 0.00 98 1002.4
20200706084048 68 235 0.0 0.0 0.00 1.37 0.00 98 1002.4
20200706083543 68 235 0.0 0.0 0.00 1.37 0.00 98 1002.3
20200706082608 68 235 0.0 0.0 0.00 1.37 0.00 98 1002.3
20200706082038 68 235 0.0 0.0 0.00 1.37 0.00 98 1002.4
20200706081603 68 235 0.0 0.0 0.00 1.37 0.00 98 1002.2
20200706081039 68 235 0.0 0.0 0.00 1.37 0.00 98 1002.2
20200706080555 68 235 0.0 1.0 0.00 1.37 0.00 98 1002.2
20200706080111 68 235 0.0 1.0 0.00 1.37 0.00 98 1002.1
20200706075539 68 235 0.0 1.0 0.00 1.37 0.00 98 1001.9
20200706075037 68 235 0.0 1.0 0.00 1.37 0.00 98 1001.9
20200706074643 68 235 0.0 0.0 0.00 1.37 0.00 98 1002.0
20200706074038 68 235 0.0 0.0 0.00 1.37 0.00 98 1001.9
20200706073537 68 235 0.0 0.0 0.00 1.37 0.00 98 1001.9
20200706072551 68 235 0.0 0.0 0.00 1.37 0.00 98 1001.9
20200706072040 68 235 0.0 0.0 0.00 1.37 0.00 98 1001.8
20200706071618 68 235 0.0 1.0 0.00 1.37 0.00 98 1001.8
20200706071035 68 235 0.0 1.0 0.00 1.37 0.00 98 1001.8
20200706070542 68 235 0.0 0.0 0.00 1.37 0.00 98 1001.7
20200706070107 68 235 0.0 0.0 0.00 1.37 0.00 98 1001.8
20200706065536 68 235 0.0 0.0 0.00 1.37 0.00 98 1001.7
20200706065034 68 235 0.0 0.0 0.00 1.37 0.00 98 1001.8
20200706064643 68 235 0.0 0.0 0.00 1.37 0.00 98 1001.9
20200706064036 68 235 0.0 0.0 0.00 1.37 0.00 98 1001.8
20200706063534 69 235 0.0 1.0 0.00 1.37 0.00 98 1002.0
20200706062532 69 235 0.0 1.0 0.00 1.37 0.00 98 1002.0
20200706062034 69 235 0.0 1.0 0.00 1.37 0.00 98 1002.0
20200706061538 69 235 0.0 0.0 0.00 1.37 0.00 98 1001.9
20200706061032 69 235 0.0 0.0 0.00 1.37 0.00 98 1002.1
20200706060531 69 235 0.0 0.0 0.00 1.37 0.00 98 1002.1
20200706060037 69 235 0.0 0.0 0.00 1.37 0.00 98 1002.1
20200706055529 69 235 0.0 0.0 0.00 1.37 0.00 98 1002.2
20200706055045 69 235 0.0 0.0 0.00 1.37 0.00 98 1002.3
20200706054618 69 235 0.0 0.0 0.00 1.37 0.00 98 1002.4
20200706054028 69 235 0.0 0.0 0.00 1.37 0.00 98 1002.4
20200706053536 69 235 0.0 0.0 0.00 1.37 0.00 98 1002.5
20200706052530 69 235 0.0 0.0 0.00 1.37 0.00 98 1002.5
20200706052024 70 235 0.0 1.0 0.00 1.37 0.00 98 1002.4
20200706051549 70 235 0.0 1.0 0.00 1.37 0.00 98 1002.5
20200706051039 70 235 0.0 2.0 0.00 1.37 0.00 97 1002.4
20200706050535 70 235 0.0 2.0 0.00 1.37 1.37 97 1002.5
20200706050036 70 238 0.0 2.0 0.00 1.37 1.37 97 1002.4
20200706045530 70 238 0.0 2.0 0.00 1.37 1.37 97 1002.6
20200706045030 70 238 0.0 1.0 0.00 1.37 1.37 97 1002.5
20200706044547 70 236 0.0 0.0 0.00 1.37 1.37 97 1002.5
20200706044023 70 237 0.0 1.0 0.00 1.37 1.37 97 1002.4
20200706043519 71 240 0.0 1.0 0.00 1.37 1.37 97 1002.4
20200706043104 71 240 0.0 1.0 0.00 1.37 1.37 97 1002.5
20200706042518 71 240 0.0 1.0 0.00 1.37 1.37 97 1002.5
20200706042020 71 240 0.0 1.0 0.00 1.37 1.37 97 1002.4
20200706041519 71 240 0.0 0.0 0.00 1.37 1.37 97 1002.6
20200706041022 71 240 0.0 0.0 0.00 1.37 1.37 97 1002.4
20200706040518 71 240 0.0 0.0 0.00 1.37 1.37 97 1002.3
20200706035534 71 240 0.0 0.0 0.00 1.37 1.37 97 1002.5
20200706035052 71 240 0.0 0.0 0.00 1.37 1.37 97 1002.3
20200706034546 72 239 0.0 0.0 0.00 1.37 1.37 97 1002.4
20200706034041 72 240 0.0 0.0 0.00 1.37 1.37 97 1002.4
20200706033549 72 240 0.0 1.0 0.00 1.37 1.37 97 1002.3
20200706033056 72 240 0.0 1.0 0.00 1.37 1.37 97 1002.4
20200706032532 72 240 0.0 2.0 0.00 1.37 1.37 97 1002.4
20200706032107 72 240 0.0 2.0 0.00 1.37 1.37 97 1002.4
20200706031600 72 240 1.0 2.0 0.00 1.37 1.37 97 1002.5
20200706031033 72 237 0.0 1.0 0.00 1.37 1.37 97 1002.5
20200706030529 72 244 0.0 1.0 0.00 1.37 1.37 97 1002.5
20200706025602 72 244 0.0 1.0 0.00 1.37 1.37 97 1002.4
20200706025055 72 244 0.0 1.0 0.00 1.37 1.37 97 1002.6
20200706024619 72 244 0.0 1.0 0.00 1.37 1.37 97 1002.5
20200706024054 72 84 0.0 1.0 0.00 1.37 1.37 97 1002.6
20200706023614 72 84 0.0 1.0 0.00 1.37 1.37 97 1002.8
20200706023447 72 84 0.0 2.0 0.00 1.37 1.37 97 1002.7
20200706022556 72 101 1.0 2.0 0.00 1.37 1.37 97 1002.8
20200706022055 72 254 0.0 1.0 0.00 1.37 1.37 96 1002.9
20200706021628 72 254 0.0 1.0 0.00 1.37 1.37 96 1002.7
20200706021054 72 254 0.0 1.0 0.00 1.37 1.37 96 1002.7
20200706020554 72 261 0.0 0.0 0.00 1.37 1.37 96 1002.8
20200706015640 72 261 0.0 0.0 0.00 1.37 1.37 96 1002.8
20200706015059 72 261 0.0 0.0 0.00 1.37 1.37 96 1002.9
20200706014645 72 261 0.0 1.0 0.00 1.37 1.37 96 1003.0
20200706014059 73 261 0.0 1.0 0.00 1.37 1.37 96 1002.8
20200706013601 73 261 0.0 0.0 0.00 1.37 1.37 96 1002.8
20200706013151 73 261 0.0 1.0 0.00 1.37 1.37 95 1002.9
20200706012602 73 261 0.0 1.0 0.00 1.37 1.37 95 1002.8
20200706012112 73 262 0.0 1.0 0.00 1.37 1.37 95 1002.9
20200706011645 73 62 0.0 0.0 0.00 1.37 1.37 95 1002.9
20200706011106 73 62 0.0 0.0 0.00 1.37 1.37 95 1002.7
20200706010559 74 61 0.0 1.0 0.00 1.37 1.37 94 1002.3
20200706005541 74 61 0.0 1.0 0.00 1.37 1.37 94 1002.2
20200706005041 74 61 0.0 1.0 0.00 1.37 1.37 94 1002.1
20200706004551 74 66 0.0 0.0 0.00 1.37 1.37 93 1002.1
20200706004051 74 66 0.0 3.0 0.00 1.37 1.37 93 1002.1
20200706003536 74 66 0.0 3.0 0.00 1.37 1.37 92 1002.1
20200706003120 74 66 2.0 3.0 0.00 1.37 1.37 92 1002.1
20200706002010 75 78 0.0 3.0 0.00 1.37 1.37 92 1002.1
20200706001545 75 139 0.0 2.0 0.00 1.37 1.37 92 1002.2
20200706001013 75 139 1.0 2.0 0.00 1.37 1.37 92 1002.1
20200706000514 75 81 0.0 0.0 0.00 0.00 1.37 92 1001.9
20200706000013 75 81 0.0 3.0 0.00 1.37 1.37 93 1001.7
20200705235509 75 81 0.0 3.0 0.00 1.37 1.37 91 1001.7
20200705235040 75 58 3.0 7.0 0.00 1.37 1.37 91 1001.7
20200705234023 75 67 2.0 7.0 0.00 1.37 1.37 91 1001.7
20200705233525 75 63 3.0 7.0 0.00 1.37 1.37 91 1001.7
20200705233031 76 57 2.0 7.0 0.00 1.37 1.37 92 1001.8
20200705232524 76 42 3.0 7.0 0.00 1.37 1.37 91 1001.7
20200705232029 76 85 3.0 9.0 0.00 1.37 1.37 92 1001.8
20200705231542 76 58 4.0 9.0 0.00 1.37 1.37 91 1001.7
20200705231024 76 55 3.0 10.0 0.00 1.37 1.37 93 1001.7
20200705230522 76 12 4.0 10.0 0.00 1.37 1.37 93 1001.7
20200705230032 75 48 4.0 9.0 0.00 1.37 1.37 93 1001.8
20200705225523 75 55 3.0 12.0 0.00 1.37 1.37 94 1001.9
20200705225022 75 65 3.0 6.0 0.00 1.37 1.37 95 1001.7
20200705224029 75 49 1.0 5.0 0.00 1.37 1.37 95 1001.7
20200705223525 75 55 2.0 5.0 0.00 1.37 1.37 95 1001.7
20200705223039 76 236 0.0 3.0 0.00 1.37 1.37 96 1001.6
20200705222525 75 236 0.0 3.0 0.00 1.37 1.37 96 1001.5
20200705222025 75 236 0.0 4.0 0.00 1.37 1.37 96 1001.4
20200705221538 75 236 1.0 4.0 0.00 1.37 1.37 97 1001.3
20200705221027 74 232 0.0 3.0 0.00 1.37 1.37 97 1001.2
20200705220525 74 232 1.0 3.0 0.00 1.37 1.37 97 1001.1
20200705220044 74 232 1.0 3.0 0.00 1.37 1.37 97 1001.1
20200705215524 74 232 0.0 1.0 0.00 1.37 1.37 97 1001.1
20200705215024 74 232 0.0 1.0 0.00 1.37 1.37 97 1000.8
20200705214028 73 232 0.0 1.0 0.00 1.37 1.37 97 1000.8
20200705213556 73 232 0.0 2.0 0.00 1.37 1.37 97 1000.8
20200705213112 73 232 0.0 1.0 0.00 1.37 1.37 97 1001.0
20200705212528 73 232 0.0 1.0 0.00 1.37 1.37 96 1001.1
20200705212028 73 232 0.0 1.0 0.00 1.37 1.37 96 1000.9
20200705211541 73 232 0.0 2.0 0.00 1.37 1.37 96 1000.9
20200705211031 73 232 0.0 2.0 0.00 1.37 1.37 96 1001.0
20200705210526 73 232 0.0 2.0 0.00 1.37 1.37 96 1001.1
20200705210034 73 232 0.0 2.0 0.00 1.37 1.37 96 1001.0
20200705205535 73 232 0.0 3.0 0.00 1.37 1.37 96 1001.1
20200705205035 72 151 0.0 0.0 0.01 1.37 1.37 96 1001.1
20200705204052 73 151 0.0 0.0 0.02 1.37 1.37 96 1001.1
20200705203555 72 151 0.0 0.0 0.10 1.37 1.37 96 1001.2
20200705203052 72 151 0.0 2.0 0.36 1.37 1.37 96 1001.3
20200705202546 72 151 0.0 2.0 0.57 1.37 1.37 96 1001.3
20200705202046 72 151 0.0 2.0 0.99 1.37 1.37 96 1001.3
20200705201630 71 151 0.0 2.0 1.23 1.37 1.37 96 1001.2
20200705201044 71 151 0.0 0.0 1.37 1.37 1.37 95 1001.3
20200705200550 71 151 0.0 3.0 1.37 1.37 1.37 95 1001.4
20200705200105 71 151 1.0 3.0 1.37 1.37 1.37 94 1001.5
20200705195556 71 151 0.0 4.0 1.37 1.37 1.37 93 1001.5
20200705195044 72 139 4.0 13.0 1.37 1.37 1.37 89 1001.6
20200705194028 72 102 6.0 14.0 1.37 1.37 1.37 86 1001.6
20200705193529 72 64 7.0 20.0 1.36 1.36 1.36 86 1001.6
20200705193044 72 14 12.0 28.0 1.33 1.33 1.33 86 1001.8
20200705192527 73 24 18.0 28.0 1.18 1.18 1.18 82 1003.6
20200705192035 74 23 7.0 22.0 0.90 0.90 0.90 78 1002.9
20200705191540 74 266 13.0 22.0 0.54 0.54 0.54 83 1003.0
20200705190033 81 228 5.0 11.0 0.00 0.00 0.00 72 1001.7
20200705185535 82 310 2.0 11.0 0.00 0.00 0.00 72 1001.7
20200705185022 86 342 1.0 3.0 0.00 0.00 0.00 75 1001.9
20200705184016 86 309 1.0 3.0 0.00 0.00 0.00 75 1001.9
20200705183516 87 340 2.0 3.0 0.00 0.00 0.00 72 1002.0
20200705183126 86 254 0.0 3.0 0.00 0.00 0.00 72 1001.8
20200705182536 86 334 1.0 3.0 0.00 0.00 0.00 71 1001.9
20200705182015 87 265 1.0 3.0 0.00 0.00 0.00 72 1002.0
20200705181537 87 351 1.0 3.0 0.00 0.00 0.00 68 1002.0
20200705181016 87 25 1.0 3.0 0.00 0.00 0.00 71 1002.1
20200705180515 87 12 1.0 3.0 0.00 0.00 0.00 68 1002.2
20200705180019 88 56 1.0 3.0 0.00 0.00 0.00 66 1002.2